Location: Les Coudrans
(46.1056°N, 1.1158°W)
Time: 20:58:47
(UTC+00:00)

SL-08 RB Rocket - Pass Details

Date: 03 March 2021
Orbit: 646 x 684 km, 97.8° (Epoch: 21 April)

Event Time Altitude Azimuth Distance (km) Brightness Sun altitude
Rises 18:50:16 0° 153° (SSE) 2,964 6.8 -10.6°
Reaches altitude 10° 18:52:30 10° 149° (SSE) 2,062 5.9 -11.0°
Maximum altitude 18:56:53 55° 72° (ENE) 796 3.8 -11.7°
Drops below altitude 10° 19:01:22 10° 355° (N) 2,100 6.4 -12.5°
Sets 19:03:39 0° 351° (N) 3,024 7.3 -12.9°
